Back to catalog

STARLINK-32283

AliveCommunicationsVLEO
NORAD 62425·PAYLOAD·🇺🇸 United States

Launched Dec 23, 2024 from Cape Canaveral Space Force Station

Loading…

Next Passes (next 24 hours)

TLE

FreshSource: CelesTrak SupGP

Epoch: Sep 14, 2026, 14:06 UTC

1 62425C 24249S   26257.58798611  .00024815  00000+0  89896-3 0  2576
2 62425  43.0033 323.7194 0001735 277.9520 105.1910 15.27559346    16

Track STARLINK-32283 in real time with AllMySat

Download on the App Store